Theta_e
347 346 348 345 344 343 344 346 348 349 349 349 349 348 349 349 348 348 348 347 347 346 347 348 347 347 346 345 345 345 344 343 341 341 340 340 340 340 340 341 341 341 342 342 343 343 344 345 345 345 345 345 344 344 342 342 343 342 342 342 342 342 342 342 342 342 342 341 342 343 343 343 343 344 344 344 344 344 343 345 345 342 342 343 344
345 348 348 348 344 344 344 347 348 349 349 349 349 349 349 349 349 348 348 348 347 347 348 347 347 346 347 346 345 345 344 343 341 340 340 339 339 339 340 340 341 341 341 341 341 341 342 343 344 343 346 345 345 344 342 342 342 341 340 341 340 341 342 342 342 342 342 342 341 341 341 341 341 343 343 343 343 342 340 341 342 340 342 343 346
348 348 348 348 345 344 344 345 348 349 349 349 349 349 349 349 347 347 347 347 347 347 347 346 346 347 346 346 345 345 345 343 342 340 340 339 339 339 339 339 339 340 340 340 340 340 340 341 344 346 346 345 344 343 343 341 340 340 339 340 340 341 341 341 342 342 341 342 342 340 340 340 340 340 341 341 342 341 339 340 340 339 338 344 343
346 346 348 347 344 346 345 346 348 349 349 349 349 349 349 349 348 348 347 347 347 346 346 346 346 346 346 345 344 344 343 344 344 340 340 339 339 338 338 339 339 339 339 340 340 339 339 343 345 345 344 343 343 343 342 341 340 339 339 340 340 340 340 340 341 341 340 340 338 336 336 334 336 339 340 341 341 341 339 339 339 339 341 341 342
346 346 347 348 348 346 346 346 349 349 348 349 349 349 349 349 348 348 348 346 346 346 346 346 346 346 345 345 344 344 344 343 340 340 339 339 339 338 337 338 338 339 338 338 339 339 339 343 345 344 344 342 341 341 340 340 339 339 339 340 340 340 340 340 341 339 339 338 337 334 331 332 333 337 339 339 339 339 338 338 338 338 339 339 340
346 346 347 348 349 348 345 347 349 349 349 348 348 349 348 348 348 348 347 346 346 346 346 346 346 346 345 344 344 344 343 342 339 338 339 339 338 338 338 338 338 339 338 339 337 342 343 344 344 344 343 342 341 340 341 340 339 339 339 339 339 339 339 341 339 340 339 337 335 332 330 331 331 332 338 339 339 337 337 337 338 338 338 339 339
346 346 346 347 347 346 343 347 349 349 348 348 348 349 349 348 348 347 346 346 346 346 346 345 345 345 345 345 344 343 343 341 338 337 338 339 338 338 338 338 338 338 338 338 337 341 341 342 342 342 343 341 340 339 339 339 339 339 338 338 338 338 339 339 338 337 336 333 331 331 331 331 331 331 337 338 337 336 337 337 338 337 338 337 338
348 348 345 346 347 344 344 347 348 348 348 348 348 347 347 347 347 347 347 346 345 345 345 345 345 344 344 344 344 344 343 340 338 337 337 338 338 337 337 337 337 337 337 338 337 338 340 341 342 342 342 340 339 339 338 338 338 338 338 337 338 338 339 337 336 335 335 330 330 330 329 331 331 331 336 337 337 336 336 337 336 337 337 337 335
346 346 345 346 347 340 343 346 348 348 348 347 347 347 348 347 347 347 347 346 346 345 345 345 345 344 344 344 343 343 343 340 338 336 337 338 337 337 336 336 336 336 337 339 343 344 344 343 343 342 341 339 338 338 338 337 337 337 338 337 336 337 339 337 337 334 330 329 330 332 331 331 331 331 336 337 337 337 335 334 334 336 335 335 335
346 346 347 347 347 339 342 345 346 348 348 347 347 347 347 347 347 347 347 346 345 345 345 345 345 345 344 344 343 341 340 339 337 336 337 338 337 337 336 336 335 335 340 343 344 343 344 343 342 340 339 338 338 337 337 336 336 336 336 336 335 336 338 336 334 333 331 331 333 334 336 338 335 333 335 338 337 336 337 336 337 336 336 335 334
345 346 348 347 345 340 344 344 344 346 348 347 347 346 346 347 347 347 347 346 345 345 344 344 344 344 344 343 342 341 340 338 336 336 337 337 336 337 336 335 335 335 338 341 343 342 342 340 340 338 338 337 336 336 336 335 335 335 335 335 335 335 339 335 332 329 330 331 333 333 336 338 335 336 339 339 338 337 338 337 337 336 335 335 336
345 345 347 346 341 339 342 343 344 345 347 347 347 346 346 346 346 347 347 346 345 344 344 344 344 343 343 343 341 340 339 337 336 336 336 336 336 336 335 335 334 335 338 339 340 340 340 339 337 336 335 334 334 335 335 334 334 333 333 333 333 334 335 332 329 329 330 329 330 333 334 334 336 336 339 340 340 340 338 338 337 338 338 337 336
344 345 347 347 345 336 341 343 344 345 346 346 347 347 346 346 346 346 346 346 345 344 343 343 343 343 342 342 341 340 339 338 336 335 335 335 336 336 335 335 334 335 336 337 338 338 338 337 336 334 333 333 333 333 333 333 332 332 331 332 332 334 331 331 327 327 327 328 328 329 331 334 335 338 339 340 340 339 338 339 338 338 338 338 338
345 345 346 346 346 339 338 341 343 344 345 346 346 346 346 345 345 345 345 345 345 344 343 343 343 342 342 341 340 339 339 339 336 335 334 334 335 334 335 334 335 334 333 333 334 334 335 334 333 332 332 331 332 332 332 332 332 332 331 331 331 332 328 327 328 326 326 326 328 327 328 332 334 337 337 339 339 338 338 338 338 338 338 338 337
344 347 346 346 345 344 338 337 339 341 343 345 346 346 346 345 345 345 345 345 344 344 343 342 342 342 342 341 340 339 339 338 336 334 332 332 333 333 333 333 333 334 333 333 333 333 332 331 331 330 330 331 331 331 331 331 331 331 331 331 330 330 328 327 327 326 325 326 325 326 327 328 334 337 338 338 338 338 338 338 337 337 335 336 336
346 346 347 346 347 345 345 338 335 336 339 341 342 344 347 347 346 346 345 345 343 343 342 342 341 341 341 340 340 339 339 338 337 335 333 331 331 332 332 331 331 332 332 333 332 330 330 330 330 330 330 330 330 330 330 330 330 330 330 330 330 329 326 325 326 326 325 326 326 327 327 327 331 333 334 335 337 337 336 338 337 337 335 335 335
344 344 344 344 346 345 346 344 338 332 334 335 336 341 344 346 346 346 344 344 343 343 341 341 341 340 340 340 339 338 337 336 335 335 334 333 331 330 330 331 331 330 330 330 329 328 328 328 328 329 329 329 329 329 329 329 329 328 328 328 330 328 326 325 326 327 326 327 326 327 327 328 330 332 333 333 335 336 336 336 336 336 334 334 333
341 341 340 342 342 344 345 345 343 344 344 337 331 334 340 344 345 344 343 343 343 342 341 341 341 340 338 337 336 336 336 335 335 334 333 331 329 328 329 330 330 329 329 328 328 328 327 328 328 329 329 329 328 328 328 327 326 325 325 327 327 327 325 324 328 328 329 329 329 329 329 332 332 333 332 332 332 332 332 332 333 334 334 333 333
337 338 339 339 338 340 342 344 343 343 345 344 346 342 334 338 341 341 341 342 342 340 340 340 338 337 336 334 333 331 331 331 332 332 331 330 329 328 329 330 330 329 329 329 328 327 327 327 328 328 327 327 326 326 325 324 323 323 324 325 324 324 323 325 328 328 328 328 329 329 328 331 332 334 334 334 333 332 332 332 332 332 332 333 333
335 336 336 337 336 339 339 340 342 343 344 346 343 343 333 332 338 339 339 340 339 338 337 337 333 331 330 329 327 330 328 330 326 329 328 329 327 327 329 329 329 329 329 328 327 327 327 326 326 325 324 323 322 321 320 320 320 320 322 322 321 321 324 324 325 327 327 327 328 328 330 330 336 335 334 334 333 334 333 332 332 332 332 332 332
334 335 336 335 336 336 339 339 340 342 343 344 345 344 344 331 333 332 332 334 335 335 333 328 325 324 325 324 325 332 332 332 332 330 324 329 322 324 327 328 328 328 327 327 326 325 325 324 324 323 321 320 317 316 315 317 317 318 321 320 319 322 322 321 320 320 325 327 327 328 331 331 331 335 336 335 334 333 332 331 332 331 330 329 331
332 333 332 333 334 334 336 338 339 340 341 343 345 344 344 339 345 343 341 335 330 328 334 339 333 335 325 329 334 332 333 332 331 328 329 328 326 322 323 326 327 326 325 325 325 324 323 323 322 321 320 319 320 317 315 314 314 317 315 315 319 321 320 319 318 317 318 321 326 327 329 331 332 333 333 333 333 332 331 330 331 331 332 332 331
329 331 330 330 331 332 332 334 337 339 340 342 343 343 344 343 343 343 342 336 337 339 340 339 339 334 332 336 335 336 334 331 331 329 329 322 325 321 323 325 326 325 324 324 323 322 321 320 319 318 317 319 316 315 313 314 313 311 311 313 317 319 318 317 317 316 315 316 320 327 328 329 329 333 332 332 331 330 330 330 330 330 329 328 328
328 330 330 328 328 329 331 333 335 337 339 340 342 342 344 343 342 341 342 341 343 340 339 339 338 336 335 338 337 336 334 332 323 322 323 326 324 320 320 320 321 321 320 321 321 320 319 318 317 317 316 313 311 310 308 307 307 307 308 309 311 315 315 315 315 314 314 314 317 324 327 328 329 329 331 331 330 329 329 328 328 329 329 327 326
330 330 328 328 328 327 328 332 334 336 337 337 339 340 341 343 342 342 341 341 341 341 339 339 338 340 339 337 339 336 334 330 328 326 326 325 325 324 323 322 321 320 318 318 318 319 318 316 313 311 310 309 307 307 306 305 304 304 303 304 306 309 311 312 312 312 312 312 314 321 323 325 327 328 329 329 328 327 327 327 326 326 326 327 325
329 327 328 327 328 328 329 331 332 334 335 337 338 340 340 342 344 340 341 342 342 340 340 340 339 339 339 338 339 336 332 328 326 326 324 324 323 323 323 322 322 320 320 320 321 319 315 312 309 307 306 305 304 304 303 302 302 302 301 302 302 303 305 307 309 309 310 309 310 318 320 321 323 325 325 326 326 325 325 325 325 324 323 324 324
326 329 330 328 328 327 328 329 331 332 334 336 337 338 340 340 340 342 341 340 340 340 340 339 339 340 341 338 336 335 331 329 329 327 324 323 323 324 323 324 324 323 323 322 319 316 312 309 306 304 304 303 302 302 301 301 301 301 300 300 300 300 301 302 304 305 306 306 307 313 317 318 321 322 323 323 324 324 324 323 324 324 322 322 322
328 329 327 327 326 327 328 328 329 331 332 334 335 336 338 339 336 337 340 338 339 341 341 341 341 339 339 338 335 337 334 331 330 329 329 328 326 327 326 324 324 324 323 320 316 313 309 306 304 303 302 301 300 300 299 300 299 299 300 300 300 299 299 299 300 301 302 303 304 307 314 316 318 319 321 322 322 323 322 322 322 323 322 322 321
325 327 326 327 327 327 327 327 328 328 329 331 333 334 336 336 336 336 337 335 339 339 339 339 338 340 340 340 338 339 336 334 332 331 332 332 333 330 328 327 324 322 319 316 314 309 306 304 303 302 301 299 299 299 299 299 298 298 298 298 298 298 298 298 298 298 299 299 300 302 308 312 314 316 317 320 322 321 321 321 321 321 321 320 320
325 327 326 326 327 325 325 325 326 326 327 328 330 333 333 334 335 335 335 330 336 339 339 337 337 338 338 339 337 336 334 333 332 331 328 328 329 330 327 327 326 323 320 313 311 308 305 304 302 301 299 299 298 297 297 298 298 298 298 297 297 297 298 298 298 297 297 297 296 297 302 305 310 314 315 317 318 319 319 319 319 319 320 320 319
323 323 322 323 324 322 322 323 323 324 326 326 328 330 332 333 333 333 333 331 331 332 336 336 337 336 335 335 335 336 333 332 330 328 328 326 323 323 322 321 320 318 316 312 309 306 304 302 300 299 299 299 298 297 297 296 297 297 298 297 297 297 297 297 297 298 297 297 297 296 296 300 304 308 312 314 316 316 318 318 319 319 320 320 320
320 319 320 322 321 320 321 322 322 323 323 324 328 330 330 331 331 331 331 331 329 330 333 332 331 333 334 334 333 332 330 327 325 324 323 321 320 319 317 315 314 314 312 310 309 305 304 303 302 300 299 298 296 296 296 296 296 296 297 297 297 296 296 296 296 296 296 296 296 296 296 295 298 302 305 310 313 314 314 315 316 316 316 317 318
319 319 320 320 319 320 320 321 321 323 323 322 326 329 330 330 329 329 330 329 330 328 327 328 332 331 331 332 331 331 330 327 326 323 320 319 317 316 314 313 313 312 310 309 307 304 303 302 301 300 298 297 297 296 298 296 296 296 296 296 296 296 296 296 295 295 295 295 295 295 295 296 294 296 299 303 307 310 311 312 312 312 314 315 316
319 319 319 318 318 321 321 321 320 321 323 324 326 327 327 328 327 327 328 328 329 328 326 327 326 330 331 330 329 329 329 327 324 321 319 316 315 314 312 312 312 311 310 307 303 303 301 300 299 298 297 296 295 295 294 294 294 295 295 295 295 294 295 294 294 294 294 294 294 295 294 294 293 292 293 297 300 303 306 308 309 309 309 310 312
318 317 317 318 318 318 319 319 319 320 321 321 322 324 326 326 324 322 323 324 325 323 323 324 323 323 326 328 329 327 328 326 323 320 317 316 314 312 312 311 311 311 308 306 303 302 300 298 298 296 296 296 296 295 295 294 294 294 294 294 293 294 294 294 294 294 293 294 294 294 294 293 293 293 292 291 295 297 300 303 305 306 308 308 310
317 317 317 318 317 317 318 317 318 318 319 320 320 321 324 324 321 316 317 316 317 317 317 319 321 319 319 321 323 322 322 320 316 313 312 311 312 312 311 311 310 309 307 305 302 301 300 299 298 297 295 295 295 295 295 294 294 294 294 293 293 293 293 293 293 293 293 293 293 293 293 292 292 292 294 292 291 293 296 298 299 301 303 304 306
315 316 316 317 316 316 315 317 318 317 318 317 315 314 319 319 317 314 313 312 312 311 311 313 314 316 318 318 317 317 316 314 313 312 311 311 310 309 309 310 309 307 305 304 302 302 299 299 298 298 297 295 295 295 295 294 294 294 294 294 294 294 293 292 292 292 294 292 292 292 292 292 293 295 292 292 292 292 293 295 296 296 297 299 302
315 316 317 316 315 315 315 316 317 316 316 314 313 312 312 314 313 311 309 309 309 309 309 309 310 312 311 312 314 315 312 312 312 311 310 309 310 309 309 310 308 307 305 303 302 301 300 299 298 299 298 296 295 294 293 293 294 293 292 293 293 292 292 292 292 293 292 291 292 291 291 292 292 292 292 292 292 291 292 292 293 293 293 295 298
315 316 316 316 316 315 315 314 315 315 314 310 309 308 308 308 308 308 307 307 307 307 307 308 308 309 310 308 309 311 311 311 311 309 309 309 308 309 309 310 307 306 304 302 301 301 301 300 299 298 298 297 295 295 294 294 293 293 292 292 292 292 292 292 292 292 291 291 291 292 293 291 291 291 291 291 291 291 290 290 289 289 289 292 294
315 315 314 315 314 314 313 312 313 314 313 308 307 307 308 307 306 305 304 304 305 304 305 305 306 305 305 306 306 306 307 309 309 309 308 307 307 308 308 308 307 305 302 301 301 301 301 300 299 297 296 296 296 295 294 293 292 292 291 291 292 292 292 292 292 291 291 291 291 291 290 291 290 291 291 291 290 290 290 289 289 288 288 289 291
314 314 313 313 313 312 311 311 310 309 309 308 307 306 306 305 305 306 305 304 302 302 302 302 302 304 304 305 305 305 305 306 307 308 309 308 308 308 308 307 307 305 303 303 303 303 302 301 299 298 296 294 294 294 294 293 291 289 290 290 290 291 291 291 291 290 290 290 291 291 291 291 291 290 290 290 290 289 289 289 288 288 287 288 287
312 312 312 312 312 311 310 310 307 307 309 310 309 308 308 308 307 306 304 302 300 300 300 301 300 301 302 302 303 304 304 305 306 307 309 310 308 308 307 306 305 304 304 304 304 302 302 300 299 296 297 294 293 294 294 294 291 288 287 288 289 290 290 290 290 289 290 290 290 290 290 290 290 290 290 290 289 289 288 288 288 287 287 287 286
312 312 312 312 311 311 311 311 309 308 308 309 309 308 307 305 306 305 303 300 299 299 299 298 299 300 299 300 302 303 303 304 305 307 308 309 309 308 307 306 306 306 304 303 303 302 301 299 298 296 295 296 295 296 296 299 292 291 291 288 285 285 288 288 289 289 290 290 290 290 290 289 289 290 290 289 289 288 288 288 287 287 286 286 286
312 311 311 311 311 310 310 309 308 308 308 307 307 306 303 301 300 300 299 300 297 296 296 296 297 298 298 299 299 300 302 303 305 306 307 309 310 308 307 307 306 306 305 303 302 301 300 299 298 297 297 294 295 295 298 298 296 293 288 291 287 289 285 286 286 288 289 289 289 289 289 289 289 290 290 288 288 288 288 287 287 286 286 285 285
311 311 310 310 310 310 309 309 307 308 308 306 303 301 300 298 297 297 297 296 297 299 295 294 295 296 297 298 297 299 300 301 303 304 306 307 308 309 308 307 306 306 306 304 302 301 301 300 300 298 297 294 293 294 294 297 298 298 297 294 290 290 289 287 286 286 289 287 288 288 289 289 289 289 288 288 288 288 288 287 286 286 285 285 285
310 311 311 310 310 310 310 308 308 307 307 304 302 301 299 298 297 297 297 297 295 295 296 295 294 294 296 297 297 298 299 299 301 303 304 305 306 307 308 307 307 306 306 304 303 302 301 301 300 299 298 298 295 294 293 294 297 297 295 293 293 292 288 287 287 283 288 289 288 288 288 288 288 288 288 288 288 287 287 287 286 286 285 285 285
311 311 311 310 310 309 309 308 307 306 305 303 302 300 299 299 299 300 301 300 298 297 300 297 295 295 296 295 296 297 298 299 300 301 303 304 306 306 307 307 306 306 305 304 302 302 302 302 301 300 300 299 298 294 294 293 294 294 295 296 296 294 297 288 286 285 282 286 288 287 287 288 288 288 287 287 287 287 287 286 286 285 285 285 284
311 311 310 310 309 308 308 308 306 304 302 301 301 301 300 299 300 302 303 304 303 300 298 296 296 294 294 294 295 296 297 298 299 300 301 303 304 305 306 305 305 305 304 303 303 303 303 303 302 303 302 300 299 296 295 294 292 291 293 293 293 296 296 295 297 290 287 283 283 287 288 287 287 287 287 287 287 287 286 286 285 285 284 284 284
310 310 309 309 309 309 308 307 305 303 302 301 300 300 301 301 301 303 302 304 302 298 296 295 293 294 293 294 294 295 296 297 298 299 300 301 302 303 304 304 303 302 302 303 303 302 301 300 300 299 299 299 299 299 296 294 294 291 291 292 292 291 292 294 295 296 290 286 284 285 285 287 287 287 286 286 287 286 286 285 285 285 284 284 283
310 311 310 309 308 308 307 305 304 303 302 300 300 300 301 301 302 303 303 300 297 295 295 294 293 293 293 293 293 294 295 295 296 297 298 299 301 301 302 302 301 301 300 301 300 300 300 300 299 299 300 299 298 297 296 295 294 292 292 292 290 289 289 290 292 289 289 291 286 285 287 286 285 285 286 286 286 286 286 285 285 285 284 283 283
310 310 309 308 307 307 306 304 303 302 300 299 299 299 300 302 303 303 303 300 297 295 293 292 292 293 293 293 293 293 294 294 295 296 297 298 299 300 300 300 299 298 298 299 298 298 298 298 298 298 298 297 296 297 295 295 293 293 292 291 290 290 290 288 287 290 289 286 285 285 286 287 289 285 285 286 285 285 285 285 284 284 284 283 283
Wind_Speed
5 7 9 8 5 2 1 2 3 6 10 10 11 11 11 11 12 11 11 11 12 12 12 13 14 15 16 16 17 17 17 18 17 17 17 17 16 16 15 15 14 14 13 15 15 16 16 17 18 19 19 20 20 20 20 21 21 21 20 20 19 19 18 16 14 17 19 22 23 23 23 21 23 22 23 23 23 23 22 22 19 15 12 16 21
7 7 7 9 6 3 0 1 1 9 10 10 10 10 11 11 11 11 10 11 12 12 12 13 14 15 16 16 17 17 17 18 17 17 17 16 16 16 15 15 14 14 14 15 16 15 16 17 17 18 19 20 19 20 20 20 20 21 21 20 20 18 16 15 13 11 12 18 21 22 22 24 22 22 23 24 23 23 22 22 21 14 11 19 22
6 6 6 9 6 5 1 2 3 8 9 9 10 10 10 10 10 11 11 11 11 12 13 13 14 15 16 16 17 17 17 17 17 17 17 16 16 16 15 15 14 14 14 15 15 16 17 17 18 19 20 20 19 20 20 20 20 21 20 20 19 17 16 14 13 11 9 6 14 17 18 21 23 23 23 24 23 23 22 22 22 19 16 24 22
8 5 6 8 5 5 2 1 2 7 8 8 8 8 9 9 10 11 11 10 11 12 13 13 14 14 16 16 16 17 17 17 17 17 16 16 15 16 15 14 14 15 15 16 16 16 17 18 19 20 20 19 19 20 20 19 20 20 20 18 17 16 15 14 12 10 10 12 15 14 12 14 17 23 22 22 24 23 22 23 23 23 24 24 24
8 7 6 7 8 6 3 1 5 7 8 8 8 8 9 9 10 10 11 11 12 12 13 13 14 14 15 16 16 17 17 16 16 16 16 16 15 15 15 14 14 15 16 16 16 16 17 18 19 20 19 19 20 20 19 19 20 20 19 17 16 15 14 13 10 8 10 14 15 13 13 14 13 20 21 23 24 22 21 22 23 23 22 24 25
9 9 7 6 8 7 3 2 7 8 7 7 8 8 9 9 10 11 11 11 13 12 13 13 14 14 15 15 16 16 17 16 15 15 16 16 15 15 15 14 15 15 16 15 16 17 19 19 19 19 20 19 19 19 18 19 19 19 17 16 15 14 13 11 10 8 8 13 15 11 13 14 14 13 22 21 23 21 23 23 23 22 22 23 23
10 8 8 6 7 6 4 3 7 7 8 7 8 9 9 10 10 10 10 11 12 12 13 13 14 14 15 15 16 16 16 16 15 15 16 16 15 14 15 15 15 14 15 15 16 17 17 18 19 18 19 20 19 18 18 18 18 17 16 15 14 13 11 10 14 15 14 13 11 11 11 14 13 11 22 21 21 22 22 23 23 22 23 22 23
7 7 9 8 6 6 6 4 6 7 7 7 7 8 9 10 10 11 12 11 12 12 13 13 14 14 14 15 15 15 16 15 15 15 15 15 15 14 14 15 15 14 15 16 16 16 16 17 18 19 20 19 18 17 17 17 17 16 15 14 13 12 9 7 11 17 15 13 11 9 11 13 13 12 20 21 22 22 20 20 21 22 22 23 20
8 8 10 9 7 8 6 6 4 8 7 8 8 8 9 9 9 10 12 11 12 12 13 13 14 14 14 15 15 16 16 15 15 15 15 15 15 15 14 14 14 13 16 17 17 19 19 19 20 20 19 18 17 16 16 16 15 15 15 14 13 12 10 10 6 11 14 13 13 12 13 13 12 11 18 20 21 20 19 17 18 21 23 22 21
8 8 8 7 9 8 5 5 5 7 8 8 8 7 9 9 9 10 11 12 11 12 13 13 14 14 14 14 15 15 15 15 15 15 15 14 14 15 15 13 12 14 18 18 18 18 20 20 19 18 18 17 16 15 15 15 15 15 14 14 14 14 11 12 15 16 14 14 15 15 14 14 12 12 17 20 20 21 15 15 16 17 17 22 23
8 7 8 9 10 8 5 5 4 3 9 8 8 9 9 9 9 10 11 12 11 12 13 13 14 14 14 14 15 15 15 15 15 15 15 14 14 14 14 13 13 15 15 17 18 19 20 19 19 18 17 17 16 15 15 15 15 15 15 14 15 14 11 13 14 12 13 14 15 14 15 16 11 11 18 19 20 20 18 20 19 18 21 23 23
7 6 7 9 10 7 5 4 4 4 2 9 8 8 8 8 8 10 11 12 12 12 12 13 13 13 13 13 14 15 15 15 15 15 14 14 14 14 14 14 14 16 16 15 17 18 19 18 18 18 17 16 15 15 15 15 15 15 15 14 14 14 12 15 13 11 12 13 13 14 15 16 14 13 19 20 21 21 21 21 20 20 21 21 21
6 7 6 8 8 6 7 6 5 3 3 8 8 8 8 8 8 9 10 11 11 11 12 12 13 13 13 13 14 15 15 15 15 15 14 14 14 14 14 13 14 15 14 15 16 16 18 18 17 17 17 16 15 15 15 15 15 15 14 13 12 11 13 14 12 13 13 13 12 12 14 14 15 20 20 21 22 22 22 22 22 21 21 22 22
7 7 6 9 8 7 6 6 5 5 4 6 8 7 8 8 8 8 10 11 11 12 12 12 13 13 13 14 14 15 15 15 15 15 14 14 14 13 13 13 14 15 15 15 15 16 16 17 17 17 16 16 16 16 16 16 16 15 14 13 12 9 9 12 13 12 12 13 12 14 13 13 15 22 21 21 21 23 23 23 24 25 24 23 23
7 7 7 7 7 8 7 6 5 5 4 6 4 3 8 8 7 8 10 11 11 11 12 12 13 13 13 14 15 15 15 15 15 15 14 14 14 14 13 14 15 16 15 15 16 16 16 18 18 18 18 17 17 17 17 17 16 16 15 13 12 11 10 10 7 10 12 12 11 13 12 11 19 21 22 21 22 23 23 23 24 25 24 24 25
5 4 5 5 5 8 7 6 5 4 4 5 4 2 5 6 7 8 10 11 11 11 12 13 12 13 14 15 15 15 15 15 15 15 15 14 14 14 14 14 15 16 16 16 17 17 18 18 18 18 18 18 17 17 17 17 17 15 13 13 12 13 9 9 12 12 11 10 12 11 11 12 19 21 21 20 22 22 23 23 25 25 25 24 24
7 7 6 5 3 5 6 6 6 4 3 4 4 3 5 6 7 8 9 10 11 11 11 12 13 14 15 15 15 15 15 14 15 15 15 15 15 15 15 15 15 15 16 17 17 18 18 18 18 18 18 17 18 17 17 17 16 15 14 12 11 14 16 15 11 12 11 10 10 10 10 10 16 20 21 20 22 23 23 24 25 24 24 23 24
4 6 6 5 5 3 4 5 6 6 6 3 2 2 5 5 8 8 8 9 10 11 11 11 12 13 14 13 12 12 13 15 15 15 15 14 14 15 16 16 16 16 16 17 17 18 18 18 18 17 18 17 17 17 17 17 16 15 13 11 13 16 16 15 12 11 12 12 12 10 10 16 20 21 20 21 21 22 22 23 23 23 23 24 25
5 4 5 5 5 6 4 5 4 4 5 6 5 5 4 4 8 9 8 9 9 9 10 11 12 12 12 13 13 12 12 12 12 13 15 13 12 12 14 15 17 17 17 18 18 18 18 18 17 17 17 18 17 17 17 17 16 15 14 11 12 16 17 13 13 13 13 11 11 11 12 19 20 23 24 25 23 23 23 24 23 23 24 26 27
6 5 5 5 5 5 4 4 4 3 4 5 6 7 5 6 7 9 8 9 9 9 11 11 12 12 12 13 15 14 12 10 11 11 11 11 11 12 12 15 16 16 16 17 17 17 17 17 17 17 18 18 18 18 17 17 17 15 13 13 14 16 11 11 14 14 12 11 11 11 16 20 22 24 25 25 25 25 25 25 26 26 26 26 26
3 4 4 5 6 5 7 5 5 6 4 4 4 4 6 7 6 9 9 9 9 10 11 11 12 12 12 13 11 11 11 10 9 10 11 10 11 12 13 15 16 16 16 17 17 17 18 18 18 18 18 18 16 17 16 17 17 16 12 13 15 12 12 12 12 10 10 11 12 12 17 20 24 24 27 26 27 27 27 26 26 26 26 25 26
6 5 3 4 5 5 5 6 5 5 5 3 3 4 5 7 8 8 7 8 9 10 10 10 10 9 12 10 8 9 8 8 9 10 10 11 10 11 13 14 16 16 16 17 17 17 16 16 15 14 12 10 8 7 8 10 13 12 13 13 11 12 11 11 11 10 11 8 9 13 21 24 25 27 25 26 25 27 27 27 27 27 29 30 29
6 6 4 5 3 4 3 4 4 5 5 4 3 4 6 7 8 8 7 10 8 10 10 10 9 10 10 8 7 6 8 9 8 8 8 11 11 11 13 13 15 14 15 16 16 16 16 15 14 13 10 8 7 6 6 6 7 11 11 10 10 11 11 11 11 10 10 10 7 17 20 24 23 25 25 26 27 25 26 27 27 27 29 29 29
7 5 5 4 4 3 3 2 4 3 4 5 4 5 5 7 5 5 7 8 9 9 9 9 9 11 9 6 5 7 8 7 12 16 12 10 8 11 13 14 14 13 14 12 14 14 14 12 11 9 7 7 6 7 7 7 7 7 8 9 9 10 9 10 9 10 10 12 10 19 22 25 25 25 26 27 27 27 28 29 29 28 28 28 27
7 6 3 5 5 4 3 4 3 3 3 4 4 6 6 6 5 3 6 8 8 8 8 10 7 9 9 7 5 6 8 9 10 8 8 9 9 9 9 8 8 9 9 9 8 6 6 6 6 7 7 7 7 7 7 7 7 7 8 8 9 9 9 9 9 10 10 11 13 22 21 24 27 26 26 27 26 27 28 28 27 28 28 28 28
5 6 6 6 6 5 4 3 4 4 4 5 5 3 1 5 6 8 7 6 5 7 7 6 6 6 8 7 6 8 9 9 10 9 8 8 9 9 8 8 8 8 8 7 6 6 6 6 7 7 7 7 8 8 8 8 8 7 7 7 8 9 8 9 9 10 10 10 13 23 21 22 24 25 25 25 25 25 26 26 27 27 27 26 27
5 7 7 5 6 6 5 3 4 4 5 4 5 4 4 3 3 6 7 7 7 8 7 7 8 7 6 7 6 8 8 9 9 9 9 8 8 8 8 7 7 7 6 6 7 6 6 6 7 8 8 8 8 8 8 9 8 8 7 8 8 8 8 8 8 9 10 10 13 24 22 23 24 25 24 24 24 24 23 24 24 26 25 25 25
7 8 6 6 5 6 6 6 5 5 4 5 6 6 5 3 1 3 5 7 8 8 6 6 7 8 7 7 6 7 8 8 9 9 8 7 7 6 6 6 6 6 6 7 7 7 7 7 8 8 8 8 8 8 7 7 7 7 8 7 7 8 8 8 8 9 9 9 11 20 23 24 25 25 25 24 24 25 24 24 25 25 26 26 26
7 8 6 7 7 5 6 6 7 7 6 6 6 7 6 4 2 2 3 4 6 8 7 7 6 6 7 7 5 5 6 6 7 7 6 5 4 5 6 6 6 6 6 6 7 8 8 7 7 7 7 8 7 7 7 7 6 6 6 7 7 8 8 8 8 8 8 9 10 16 23 24 25 24 25 25 25 24 23 25 24 25 25 26 25
8 8 6 5 5 5 6 7 7 6 6 7 6 7 8 5 4 4 3 1 1 4 6 5 5 5 5 6 7 6 5 8 7 7 9 8 6 6 6 5 6 6 6 6 6 7 7 8 7 7 8 7 8 7 7 7 7 6 6 6 7 8 7 8 7 7 8 8 9 11 24 23 23 24 25 25 25 24 24 23 24 24 24 25 25
7 8 6 5 4 3 4 4 5 5 5 5 6 7 8 7 5 4 3 3 1 2 2 3 4 6 6 4 3 3 8 5 6 6 5 6 6 5 5 5 5 5 5 6 5 6 8 8 8 7 7 7 7 6 7 7 6 7 7 7 8 8 8 8 7 7 8 7 7 9 13 24 24 24 24 25 25 25 25 25 24 24 24 24 23
7 7 5 5 4 5 4 5 5 5 6 7 6 7 8 5 5 4 4 4 4 4 1 3 3 4 5 7 7 6 6 7 8 7 7 7 6 5 5 5 6 6 7 8 7 5 7 8 9 7 7 8 8 7 6 7 7 7 7 8 8 8 8 7 7 8 8 7 7 7 8 10 22 24 24 25 25 25 25 25 25 24 24 23 23
6 7 7 5 5 4 4 4 3 4 5 8 8 7 6 4 4 5 5 4 5 5 4 2 3 6 6 7 8 8 8 8 6 8 8 7 7 7 6 6 6 8 8 10 10 7 7 8 8 6 6 7 8 7 6 7 8 8 8 8 8 8 7 7 7 7 8 7 7 7 7 8 9 16 23 24 24 25 24 24 24 24 24 23 22
6 6 6 6 5 3 2 2 2 4 5 6 6 5 5 5 4 5 5 5 5 5 5 4 3 3 5 7 7 9 9 8 9 9 8 7 8 8 8 7 7 8 8 8 9 6 7 8 7 7 7 7 7 7 7 8 7 7 7 8 8 7 7 7 7 7 7 7 7 7 7 7 8 8 9 20 24 23 24 24 23 23 23 23 22
6 7 8 7 7 4 3 2 3 5 4 4 2 4 6 6 4 5 5 4 3 2 3 3 3 3 2 1 6 9 9 9 10 10 10 10 9 9 9 8 8 8 7 6 8 7 6 8 6 8 7 7 7 7 7 8 8 8 7 7 8 7 7 7 7 7 7 7 8 8 8 7 7 7 7 8 14 21 23 23 23 23 23 23 22
8 7 7 7 7 6 5 4 6 6 6 6 4 1 3 4 4 4 2 2 2 1 2 3 4 4 3 3 3 5 6 8 7 7 7 6 8 8 8 8 9 8 7 7 7 7 6 6 6 7 10 8 8 8 7 8 8 8 8 7 7 7 6 7 7 7 7 7 7 7 7 7 7 7 6 6 7 10 18 21 22 22 22 22 22
8 8 8 8 7 7 6 7 7 7 6 5 2 2 3 4 4 3 3 3 3 2 2 2 2 4 4 4 4 5 6 7 7 7 8 8 8 8 8 9 9 8 8 8 6 6 7 7 7 7 8 9 9 9 8 8 8 9 8 8 6 6 6 6 6 6 6 7 7 7 7 7 7 7 7 6 5 5 10 14 17 21 21 21 22
8 8 8 8 8 7 6 7 6 6 6 4 4 3 2 4 4 4 3 4 3 2 2 2 2 2 2 4 5 6 6 7 8 7 8 7 8 9 8 7 8 9 9 7 7 7 6 7 9 8 8 8 8 9 9 8 8 8 8 8 7 6 6 6 6 6 6 7 6 7 7 6 6 6 6 6 6 6 6 9 12 14 18 19 20
7 9 8 7 7 6 7 7 6 7 7 4 4 4 4 4 4 4 3 3 3 3 2 3 3 3 3 3 4 6 8 8 9 8 9 9 9 9 8 7 7 7 8 9 9 7 7 8 9 10 8 7 8 8 9 9 8 8 8 8 7 7 6 6 5 5 6 6 6 6 5 6 6 6 6 6 6 6 7 7 7 6 8 16 17
8 8 9 8 8 7 7 7 8 7 7 5 4 4 4 4 4 3 3 2 3 3 2 3 2 3 2 2 3 4 4 6 9 9 9 9 10 10 10 10 8 8 9 9 9 8 9 11 10 11 11 9 8 9 9 10 10 10 9 8 8 7 7 5 6 6 5 5 5 4 5 5 5 5 6 6 6 6 7 7 7 7 7 10 14
9 10 9 9 9 8 8 9 7 7 6 6 5 5 5 4 3 4 4 4 3 2 2 2 1 3 4 3 3 3 4 5 6 7 8 10 9 10 11 9 8 8 8 9 8 10 9 9 9 8 11 11 9 8 9 9 10 9 8 8 7 7 7 7 7 6 5 4 4 4 4 4 4 5 5 5 6 6 6 7 6 6 6 5 7
11 11 11 10 9 10 10 9 7 6 6 7 6 6 5 5 4 4 4 4 4 3 3 3 1 2 3 4 3 4 5 5 4 6 8 9 9 8 9 9 8 7 8 8 8 9 9 9 10 9 7 10 9 9 9 9 6 8 9 7 6 5 5 6 6 5 5 5 4 4 4 4 4 4 4 5 5 6 6 5 4 5 6 6 6
11 11 10 10 10 10 10 10 7 7 6 6 6 6 5 3 2 4 5 4 2 2 2 3 3 3 2 3 4 4 5 4 4 5 6 8 9 9 9 8 9 9 8 8 10 10 9 11 10 10 10 6 8 7 7 2 6 8 8 9 6 5 3 4 5 5 4 4 4 4 4 4 4 3 3 4 4 4 4 4 5 5 6 6 5
10 11 11 11 9 9 10 10 8 7 7 6 5 5 7 7 7 5 6 4 3 2 4 3 2 4 3 3 3 3 3 5 5 5 5 7 9 9 9 9 9 9 9 10 10 10 10 9 9 9 9 10 6 4 3 4 3 9 7 4 8 6 6 4 5 4 4 4 4 4 3 3 3 3 3 3 4 4 4 4 5 6 6 6 6
11 11 11 10 7 10 11 11 8 7 7 7 7 7 7 7 6 7 6 6 5 4 3 2 2 2 3 3 3 2 3 4 4 4 5 6 7 8 9 10 10 9 8 9 9 9 10 9 9 9 9 9 9 5 4 3 2 2 1 4 4 5 3 8 8 4 5 4 3 4 3 3 3 3 3 3 3 4 4 5 5 5 6 6 6
11 10 10 10 9 9 10 11 8 7 7 8 8 7 6 7 7 6 5 3 4 4 6 7 6 5 5 4 4 3 3 3 3 4 4 5 6 7 8 9 10 9 8 8 9 9 9 9 8 8 8 7 9 8 6 2 1 1 2 3 3 1 5 8 7 4 2 3 3 2 3 3 3 3 3 3 3 4 4 4 4 4 5 5 6
10 10 10 10 10 9 10 10 8 7 7 8 9 6 7 6 8 8 8 8 7 4 3 2 3 3 4 5 4 3 3 4 3 3 4 5 6 6 7 8 8 8 8 9 9 10 9 8 8 8 7 7 7 7 7 5 3 1 1 3 2 2 2 9 3 7 4 3 4 4 3 3 3 3 3 3 3 3 3 3 4 4 4 5 6
10 10 10 9 11 11 11 11 8 7 6 7 8 7 7 7 7 6 6 6 6 8 7 6 4 4 5 5 4 4 3 3 4 3 4 5 6 6 7 7 7 7 8 8 9 8 7 6 7 6 5 6 6 5 6 6 5 3 3 3 3 2 3 3 2 4 5 6 5 2 3 2 3 3 3 3 3 2 2 3 3 3 3 5 5
10 10 10 9 9 10 11 11 9 8 8 9 9 8 7 7 6 6 5 4 4 5 5 4 5 5 6 5 5 5 4 4 3 4 4 5 5 6 6 7 6 7 7 6 7 7 8 8 6 5 5 5 4 4 5 5 4 5 5 3 3 3 3 2 2 2 2 6 5 5 4 3 2 3 3 3 2 2 2 2 2 3 3 4 5
10 10 10 9 9 11 11 11 10 8 8 10 9 9 8 7 7 6 7 6 5 5 5 5 5 5 6 6 5 5 4 4 4 4 4 5 5 6 5 6 6 6 5 5 6 7 7 6 5 4 4 4 3 4 4 4 4 5 4 4 4 3 3 2 1 2 2 3 4 5 5 5 4 4 4 4 3 3 2 2 2 3 3 4 5
9 10 10 10 10 12 12 11 11 8 9 10 10 10 9 8 8 8 8 8 7 7 7 5 5 5 6 6 6 5 5 5 4 4 5 5 5 5 5 5 5 4 5 6 5 5 6 5 4 5 4 4 4 4 4 3 4 4 4 4 4 4 3 2 3 2 2 2 4 4 3 2 1 5 4 4 4 3 2 2 2 2 3 3 4
Wind_Direction
133 131 110 101 122 117 99 357 321 124 111 111 107 111 106 104 100 98 100 94 92 88 81 75 73 71 70 69 67 65 64 62 62 62 61 62 61 61 62 64 66 68 69 74 74 74 75 75 75 76 73 68 65 64 63 62 60 60 59 58 59 60 57 56 57 67 74 72 64 57 55 55 53 51 49 47 45 41 41 41 46 49 45 44 52
147 137 128 108 119 124 85 38 192 123 117 116 115 112 111 107 107 107 102 96 95 90 81 76 73 71 68 67 65 63 63 61 60 62 63 62 63 63 64 65 69 74 75 75 74 76 77 76 78 75 71 70 66 63 61 60 60 60 60 59 59 56 49 46 46 49 74 82 78 66 57 54 53 51 51 49 47 45 42 40 39 43 42 45 46
146 140 128 114 110 133 139 270 157 125 118 117 117 113 113 113 112 112 106 102 99 92 83 78 75 73 71 68 66 64 61 62 61 63 65 65 65 66 68 70 74 78 80 78 78 81 80 79 79 76 73 71 68 65 62 61 62 62 62 61 58 48 42 34 31 29 43 85 83 75 67 56 49 51 52 51 50 49 47 47 45 45 45 44 43
144 137 133 116 107 132 143 219 209 119 110 106 108 111 113 116 114 112 107 104 99 91 85 81 79 76 75 72 70 68 65 62 59 63 66 67 67 69 71 74 80 82 82 81 83 83 82 83 78 77 76 73 68 63 62 61 62 62 63 62 53 47 40 34 22 25 40 60 64 62 62 58 51 50 54 53 53 51 51 50 49 50 48 46 44
139 147 137 141 137 115 122 190 150 118 111 112 115 115 118 114 113 111 113 108 101 96 88 83 82 80 77 75 73 71 69 68 64 64 68 69 68 72 76 77 79 80 80 82 86 86 83 82 84 81 79 77 72 67 64 63 64 65 64 58 52 44 37 27 23 34 55 68 63 60 59 59 58 51 54 56 56 53 52 52 51 50 50 49 46
146 140 140 141 132 119 66 179 135 123 115 118 122 121 122 121 119 120 119 110 102 99 91 87 84 81 77 76 73 71 70 69 68 67 70 72 71 75 79 80 79 78 81 86 87 86 87 84 82 83 81 78 73 68 65 66 68 68 62 56 50 41 33 18 29 27 62 73 70 60 59 59 56 53 53 55 59 56 53 53 52 51 50 49 48
140 135 134 138 136 107 52 124 132 121 114 115 128 131 128 124 124 126 115 107 104 100 94 90 86 81 78 76 74 72 70 70 69 69 70 73 75 76 79 80 78 77 82 85 84 82 84 83 82 82 84 79 75 71 69 69 70 69 63 57 50 43 29 31 45 43 51 59 57 61 65 62 59 58 56 55 56 56 55 56 55 54 53 51 49
132 140 135 131 140 105 51 71 132 122 116 115 123 130 130 125 126 121 116 109 108 102 97 92 88 84 81 77 74 71 71 72 70 70 73 75 75 76 79 81 82 86 87 85 91 89 84 87 88 86 81 78 77 74 72 71 71 69 62 51 42 32 20 47 71 73 62 61 63 64 66 66 68 61 56 58 57 56 55 54 57 58 56 56 54
145 143 135 130 110 75 60 36 139 126 120 119 120 126 124 120 120 121 120 119 109 104 100 96 91 89 84 79 77 74 73 72 72 72 75 77 77 76 75 77 83 85 85 84 87 90 89 87 83 79 80 80 77 76 73 69 67 63 57 49 35 20 12 38 50 84 72 64 60 48 52 62 62 63 58 58 60 61 61 58 56 57 57 57 57
142 143 130 136 121 91 69 68 114 140 128 123 123 126 130 125 125 124 121 117 109 107 102 95 92 87 83 83 81 79 77 77 75 75 78 78 79 80 80 79 81 84 85 81 81 83 84 81 81 82 79 79 77 76 72 68 62 59 55 46 33 20 12 42 57 57 69 67 64 57 45 46 52 59 63 62 61 59 64 60 56 55 58 58 57
143 138 129 119 109 102 92 85 65 88 140 131 125 128 127 125 127 125 121 116 113 108 103 96 93 89 86 82 82 81 81 80 78 79 78 79 81 81 82 82 83 84 81 80 80 79 82 83 82 80 78 77 80 75 71 69 66 61 57 47 33 22 14 47 57 62 63 65 64 63 55 49 58 56 62 67 64 62 60 58 59 58 60 60 58
133 142 135 111 109 105 97 91 68 68 104 140 134 127 125 123 123 123 122 120 116 109 104 101 98 94 90 85 83 82 81 78 77 77 78 79 81 82 83 83 82 84 82 80 82 83 82 82 81 78 76 77 77 72 71 67 63 62 57 48 36 30 30 55 60 59 60 61 63 63 58 51 53 61 63 60 59 56 54 56 56 57 57 57 61
142 146 137 126 127 123 119 91 84 86 138 151 141 126 119 123 123 126 126 123 117 113 111 106 100 97 92 87 85 85 83 80 78 77 77 78 79 81 83 81 83 89 88 85 83 84 80 79 78 76 75 73 72 72 69 64 59 54 48 38 22 14 42 54 65 64 58 55 56 59 60 55 53 58 60 61 61 62 61 60 60 59 59 58 55
146 142 149 139 118 126 105 95 88 78 85 156 148 132 124 128 129 126 128 128 123 119 114 111 106 101 97 92 89 89 85 83 81 80 80 79 78 80 82 84 82 81 86 88 88 82 80 79 77 76 75 74 72 70 65 60 56 50 42 32 19 355 63 68 70 67 64 59 50 52 56 55 57 54 57 61 63 64 62 61 60 59 59 61 62
143 146 140 146 132 137 113 107 98 71 65 68 89 128 133 131 127 129 130 131 126 121 121 114 112 105 99 95 93 90 88 86 85 84 83 83 81 83 84 86 87 88 88 87 86 83 80 77 76 75 74 73 71 68 64 59 55 47 41 29 17 16 54 74 79 72 67 64 65 61 53 48 54 55 56 57 62 62 61 60 61 61 61 62 64
111 115 118 122 135 129 149 118 88 85 61 66 63 85 138 128 125 132 131 133 129 130 124 119 113 108 102 99 98 94 92 90 88 87 84 84 86 86 89 91 92 92 89 86 83 82 79 78 77 76 74 74 72 69 65 61 55 48 39 27 20 23 32 63 61 61 59 57 59 59 58 56 53 52 51 59 62 63 64 59 59 61 60 58 58
87 93 92 80 107 143 138 158 118 118 123 64 46 85 128 124 128 132 134 133 134 132 125 125 119 113 106 100 97 96 94 92 90 88 86 87 89 89 91 94 95 95 92 87 85 83 81 81 81 79 79 76 74 70 66 61 54 44 32 24 12 35 38 58 69 62 61 56 59 63 61 59 57 59 56 55 57 57 59 62 61 60 62 61 60
87 93 95 92 81 113 142 139 138 179 160 127 131 90 123 131 126 126 127 131 135 134 131 131 119 110 105 101 98 95 95 93 91 89 89 89 92 93 95 96 96 97 96 94 90 87 86 85 84 81 79 77 72 68 64 58 50 39 31 19 36 47 52 53 60 61 57 49 49 45 53 54 57 64 64 64 62 60 58 57 59 61 62 61 60
77 100 98 111 103 94 105 135 147 165 186 185 169 139 137 132 133 129 129 132 134 129 131 124 115 112 110 109 104 94 89 88 87 89 93 87 86 89 95 99 101 101 100 96 93 92 89 87 84 81 78 73 68 64 60 53 46 35 26 21 49 55 48 53 62 61 52 50 54 53 52 61 64 60 59 58 59 60 59 59 59 60 61 62 62
115 136 136 120 96 127 124 146 156 187 175 197 174 174 136 142 145 135 135 132 136 131 124 122 120 118 117 119 118 112 103 92 90 87 84 88 90 96 98 101 100 100 98 97 96 94 91 88 85 82 77 72 66 60 56 52 46 36 20 21 52 60 56 54 50 56 61 56 57 62 61 62 69 69 65 65 65 64 63 62 62 62 63 64 63
179 172 178 140 145 143 152 144 181 178 178 196 186 171 140 148 148 133 128 128 133 130 121 125 127 126 130 133 136 125 123 120 114 104 96 90 92 95 99 100 99 99 99 100 98 95 94 92 90 88 86 82 76 66 56 51 47 40 28 29 62 67 65 57 48 38 48 58 58 62 62 64 65 68 67 66 64 65 64 63 61 60 59 61 61
188 186 163 140 155 149 161 178 177 194 185 198 215 189 143 183 166 154 143 136 134 136 143 147 143 140 145 156 149 141 135 123 116 114 108 105 95 95 98 101 102 102 102 102 100 97 93 92 89 84 80 78 78 75 67 58 48 43 43 37 65 75 68 57 52 44 34 23 51 59 62 61 62 65 66 65 64 62 62 62 62 61 58 56 56
189 189 161 156 147 147 170 169 185 185 194 205 201 210 182 197 180 176 157 157 157 161 161 158 158 155 165 170 161 153 131 131 130 111 107 96 100 101 98 98 99 98 98 99 97 94 93 90 87 85 85 80 68 65 57 49 53 50 56 55 65 80 64 54 54 49 39 27 14 51 58 60 61 64 64 64 61 62 60 57 56 56 56 54 54
182 189 171 148 141 145 156 171 155 143 203 198 193 207 211 199 185 193 172 175 173 178 173 173 174 167 177 184 179 146 132 105 97 109 115 116 100 91 93 93 95 97 100 96 93 91 91 90 88 82 69 59 60 61 57 48 44 44 51 60 65 73 65 58 55 50 43 27 13 34 56 58 58 59 58 59 58 57 57 56 54 53 55 55 53
190 169 163 173 164 166 176 179 162 159 202 206 184 221 212 216 177 194 206 183 181 191 184 186 187 181 184 182 175 151 131 127 127 137 137 131 131 127 127 125 123 123 127 115 119 129 110 90 78 66 67 62 60 58 59 55 50 48 46 53 63 66 65 59 58 54 44 33 16 30 45 54 55 58 59 58 57 59 59 57 56 55 54 55 55
136 167 192 170 174 179 191 179 179 182 187 218 202 161 301 230 215 190 205 187 192 201 191 188 176 181 198 191 158 151 141 143 148 151 141 146 146 151 144 140 137 135 139 135 120 98 91 85 75 69 68 65 62 60 57 59 60 51 48 50 60 63 63 64 62 61 53 39 20 30 41 57 57 58 59 60 59 59 59 59 57 56 56 56 56
172 199 194 191 171 184 185 205 215 189 194 228 215 184 209 240 244 234 195 196 199 197 199 187 191 184 190 186 194 163 154 157 153 152 152 158 159 155 149 145 149 147 145 119 105 101 87 82 77 77 75 73 64 60 60 57 52 54 50 51 57 66 65 64 63 64 58 47 30 29 47 54 58 58 60 61 59 59 59 59 58 57 56 55 54
185 201 188 195 185 197 194 202 219 226 217 206 223 212 192 173 171 283 250 209 195 202 197 192 193 175 187 204 174 176 166 163 159 160 158 164 158 149 135 148 144 138 122 118 115 98 89 82 83 81 79 74 68 61 61 52 53 54 57 56 63 68 67 68 69 67 66 59 45 35 47 57 57 59 60 60 59 59 60 58 58 57 56 55 55
193 194 195 206 198 203 213 220 225 224 228 228 226 224 205 197 202 220 235 310 225 206 202 195 195 197 192 176 148 152 161 151 147 152 151 134 118 129 136 150 134 122 112 110 108 104 101 96 89 87 84 84 78 67 64 55 53 50 57 62 62 64 66 70 71 75 77 71 58 43 47 54 62 61 61 59 58 58 58 59 59 59 58 57 55
203 204 206 213 220 215 225 234 235 238 234 234 231 229 217 201 223 226 171 147 285 271 208 186 199 165 196 191 173 176 160 159 145 152 162 145 130 135 135 102 86 84 98 111 108 109 106 100 94 93 91 88 82 76 76 66 56 53 54 62 60 63 64 63 62 67 75 79 71 57 48 48 52 58 60 60 60 59 59 59 60 59 58 56 54
204 205 202 210 210 221 240 245 244 243 254 239 234 231 215 207 198 222 200 162 124 4 269 181 178 186 179 125 122 153 154 134 128 135 138 128 116 102 101 113 95 93 99 92 86 100 106 102 106 107 99 90 81 81 77 74 67 64 58 63 66 66 64 60 58 60 67 67 72 69 57 50 46 46 52 58 59 60 60 60 57 56 55 55 53
196 200 202 198 197 213 227 238 241 235 232 238 232 229 227 194 137 219 210 172 156 146 263 166 175 171 168 160 160 155 138 133 133 131 123 113 108 97 95 89 100 87 91 96 88 92 99 99 99 98 100 95 89 80 81 81 76 72 69 65 64 66 63 61 61 59 59 64 68 68 64 61 52 47 46 50 54 54 55 55 53 52 53 53 51
191 199 198 181 198 204 220 214 231 251 235 230 225 221 224 187 161 217 217 178 176 165 172 197 185 158 165 166 161 159 153 138 140 136 128 132 126 116 107 104 109 112 111 108 105 106 98 104 102 104 93 92 93 91 85 82 78 74 71 69 68 64 59 60 59 59 59 60 60 62 64 59 58 51 46 45 48 50 52 53 53 52 50 50 50
184 180 181 189 194 181 196 205 239 241 234 223 221 215 212 196 205 225 217 197 189 182 177 166 159 164 172 165 158 163 164 154 147 147 137 127 129 121 119 115 112 111 111 115 112 107 109 113 119 113 103 100 100 94 93 88 83 79 73 70 68 65 64 61 58 55 57 59 58 56 57 55 56 56 52 47 46 48 50 51 50 49 49 47 48
172 181 186 192 171 177 194 186 213 226 234 216 302 287 218 203 197 212 217 229 188 152 142 135 136 109 94 96 165 167 168 152 152 149 143 139 130 127 126 124 124 122 117 113 113 111 118 123 129 117 106 100 98 96 94 91 88 81 76 76 73 69 64 63 61 58 59 59 57 57 55 55 55 60 60 57 47 48 50 49 47 45 44 44 43
188 182 179 175 173 177 188 199 206 213 209 210 217 283 165 175 186 176 166 49 50 75 94 121 140 136 120 113 105 145 129 137 128 124 123 128 135 134 135 133 134 127 121 123 120 123 125 119 120 122 116 112 110 104 97 93 88 85 82 80 78 75 74 68 61 59 57 61 61 60 57 55 55 54 55 65 64 50 48 48 45 42 40 40 42
189 184 180 173 178 168 180 204 204 203 200 189 178 82 163 163 142 116 98 79 62 53 49 53 76 133 142 127 129 110 109 108 114 113 116 128 123 120 132 138 138 133 131 130 125 127 137 131 128 124 118 119 114 109 102 97 93 88 85 81 78 74 71 63 68 68 61 62 64 64 62 56 53 51 50 44 45 54 47 44 47 42 37 36 37
185 186 179 176 179 163 180 203 202 196 190 171 166 137 126 114 114 110 105 104 94 76 63 67 53 29 61 117 126 113 111 118 118 115 116 119 121 125 130 137 137 133 129 125 122 134 141 136 129 126 121 119 119 114 107 101 96 92 87 83 82 78 75 73 70 67 66 66 63 63 62 58 56 55 52 49 45 39 34 37 37 43 37 34 33
183 183 177 172 169 167 185 193 196 187 179 150 132 122 107 90 83 95 91 86 87 80 72 85 79 69 34 46 94 121 128 136 130 131 133 133 130 134 137 141 140 127 124 127 136 148 147 138 131 127 124 114 115 112 109 106 100 95 89 84 82 77 72 74 74 71 70 72 76 75 73 68 62 55 52 48 46 44 38 37 32 27 30 31 30
181 179 176 175 170 174 186 182 193 185 168 147 147 148 148 140 136 108 96 79 72 85 72 58 93 90 82 50 76 97 119 139 137 146 144 141 142 145 142 144 148 134 134 139 148 155 149 138 134 130 121 109 105 114 119 114 102 95 93 87 81 78 77 75 73 72 73 71 72 79 80 78 70 61 57 53 47 45 42 38 34 26 23 21 26
182 178 178 178 176 177 187 191 182 178 166 159 167 166 159 138 139 163 148 139 120 96 95 85 59 127 134 114 113 125 124 120 123 141 146 143 142 141 141 145 144 143 142 147 146 147 143 137 128 123 127 124 124 127 126 126 120 106 100 96 86 78 77 73 70 67 66 67 73 77 76 78 75 72 67 60 53 48 48 41 36 30 23 20 19
184 181 182 179 180 183 195 191 178 178 183 176 166 177 171 170 166 163 142 140 131 146 147 148 149 96 113 131 137 142 141 134 139 139 144 144 140 145 144 142 142 146 141 139 142 137 140 137 135 127 133 133 135 147 149 142 125 132 133 122 102 92 83 83 76 74 74 73 71 73 75 68 73 78 83 81 67 57 51 48 42 33 29 26 25
181 183 179 179 183 187 196 193 182 180 183 176 169 171 158 78 116 128 138 121 40 39 93 90 129 135 94 77 113 127 140 132 142 147 145 142 144 146 146 141 144 144 143 145 146 150 146 145 147 141 139 135 137 157 175 258 141 145 135 128 142 134 125 98 84 73 76 76 77 76 78 79 70 75 74 70 72 68 61 52 46 37 33 29 27
182 180 180 182 184 191 195 193 183 182 175 170 151 107 91 84 65 65 66 71 126 78 74 68 86 116 120 94 66 100 123 134 147 151 144 144 150 151 147 150 148 154 153 151 154 151 150 151 149 147 143 141 154 160 202 211 213 154 160 200 167 156 144 154 127 99 87 77 76 83 84 91 94 88 76 73 74 68 59 51 43 37 31 27 25
184 182 179 180 186 191 193 195 182 180 176 150 126 120 113 100 91 81 85 94 78 45 85 132 143 123 121 132 120 98 103 120 135 145 148 144 147 153 154 152 152 160 159 154 157 156 156 155 154 153 164 152 155 160 203 223 255 3 284 149 156 201 175 137 141 136 156 119 88 83 75 85 90 87 86 78 71 66 55 46 45 38 29 25 22
185 180 176 179 186 189 193 191 178 179 172 155 141 140 146 140 141 143 149 150 143 153 179 180 174 166 155 118 106 110 118 119 132 144 151 145 148 151 151 148 152 161 160 152 150 149 159 160 161 161 164 167 153 156 165 210 304 81 35 7 3 37 124 150 156 135 107 88 119 90 85 85 84 83 80 77 68 63 47 45 41 41 29 24 21
185 173 174 183 186 187 192 188 176 172 161 153 149 150 152 164 168 168 166 169 166 188 168 117 135 135 120 132 128 118 126 143 134 142 139 149 146 150 149 148 150 154 153 151 153 159 161 160 160 169 168 160 159 160 160 162 147 146 30 40 90 357 118 149 185 113 154 161 170 163 136 110 92 93 85 71 61 60 58 47 34 34 38 25 23
177 171 176 183 190 193 196 189 170 168 147 154 160 164 167 172 178 185 184 179 179 163 162 147 134 122 122 129 138 132 125 129 132 129 139 148 154 149 147 148 150 153 152 155 156 158 151 153 168 170 156 163 170 161 151 154 168 149 153 133 101 99 64 47 69 172 147 156 160 112 139 145 124 99 96 93 79 64 63 58 27 21 33 29 22
177 173 175 181 192 196 198 185 170 160 161 164 166 175 181 177 178 180 179 178 136 126 119 120 126 134 126 132 139 137 137 124 130 135 139 146 155 149 144 145 145 145 151 148 149 150 150 148 147 147 157 160 173 138 143 165 172 148 149 136 135 117 92 91 103 45 123 155 149 173 160 152 173 145 124 111 87 82 81 63 49 27 28 29 18
177 173 172 178 193 199 192 180 174 166 164 168 173 180 185 182 188 188 182 150 120 123 133 139 140 148 137 147 142 145 142 139 133 144 143 148 146 141 141 140 141 143 141 125 119 125 132 134 137 143 144 135 117 138 158 154 134 150 160 150 146 141 136 135 111 129 77 52 139 159 159 173 185 156 147 140 139 137 119 103 70 42 30 28 15
175 174 174 185 196 201 198 182 178 165 163 171 177 183 188 189 194 191 192 167 151 147 145 150 152 157 157 158 156 153 152 150 156 154 154 149 141 142 144 140 132 118 108 113 125 125 127 124 111 104 111 127 129 114 111 123 135 142 149 161 158 166 162 151 151 125 127 134 119 128 140 170 129 148 148 138 149 138 106 105 75 59 31 27 18